Starlink 4426

operational
NORAD ID: 53484 Int'l Des: 2022-099 Owner: SPXS Country: US Constellation: starlink
LEOCIRCULARRETROGRADESSO

Über Starlink 4426

Beschreibung wird geladen...

Live-Position

3D-Globus wird geladen...

Nächste Überflüge

Höhenverlauf

Altitude vs Time

uPlot chart will show altitude changes over time

Zweizeiliger Elementsatz

1 53484U 22099V 25350.93434728 -.00000073 00000-0 -83719-6 0 9997
2 53484 97.6038 109.6204 0001422 101.1550 258.9836 15.05645512183594
Epoch: 16. Dez. 2025 • Age: 10 hours

Aktueller Status

Höhe 552.1 km
Geschwindigkeit 7.59 km/s
Subsatellitenpunkt 5.68°N, 97.24°W
Startdatum 12. Aug. 2022
Alter 3.3 years
Typ internet

Technische Details

Klassifizierung Payload
Masse 300.00 kg
Trockenmasse 275.00 kg
Gesamtmasse 300.00 kg
Länge 0.20 m
Durchmesser 2.80 m
Spannweite 9.00 m
Form Box + pan
Hersteller SPXS
Bus-Typ Starlink
Phasenstatus In Orbit
Besitzer/Staat SPXS/US

Große Konstellationen

Loading constellations...